Carrollton, GA

12:37 AM EST on December 13, 2017 (GMT -0500)
West Georgia Regional-Gray

Weather History for KCTJ - March, 2014

Change the Weather History Date:

Wednesday, March 12, 2014

  Actual Average Record
Temperature  
Mean Temperature 55 °F -  
Max Temperature 68 °F 68 °F 93 °F (1955)
Min Temperature 41 °F 39 °F 20 °F (1969)
Degree Days  
Heating Degree Days 10    
Growing Degree Days 5 (Base 50)    
Moisture  
Dew Point 49 °F    
Average Humidity 81    
Maximum Humidity 100    
Minimum Humidity 57    
Precipitation  
Precipitation 0.00 in - - ()
Sea Level Pressure  
Sea Level Pressure 29.74 in    
Wind  
Wind Speed 7 mph (WNW)    
Max Wind Speed 25 mph    
Max Gust Speed 36 mph    
Visibility 9 miles    
Events Rain    
Averages and records for this station are not official NWS values.
T = Trace of Precipitation, MM = Missing Value Source: NWS Daily Summary

Daily Weather History Graph

Daily Weather History Graph

Search for Another Location

Airport or City:

Trip Planner

Search our weather history database for the weather conditions in past years. The results will help you decide how hot, cold, wet, or windy it might be!

Date:

Astronomy

Mar. 12, 2014 Rise Set
Actual Time 7:54 AM EDT 7:46 PM EDT
Civil Twilight 7:30 AM EDT 8:10 PM EDT
Nautical Twilight 7:01 AM EDT 8:39 PM EDT
Astronomical Twilight 6:32 AM EDT 9:08 PM EDT
Moon 4:24 PM EDT (3/12) 5:17 AM EDT (3/12)
Length of Visible Light 12h 40m
Length of Day
11h 51m
Waxing Gibbous, 85% of the Moon is Illuminated
Mar 12
Waxing Gibbous
Mar 16
Full
Mar 23
Last Quarter
Mar 30
New
Apr 7
First Quarter

Hourly Weather History & Observations

Time (EDT) Temp. Windchill Dew Point Humidity Pressure Visibility Wind Dir Wind Speed Gust Speed Precip Events Conditions
12:14 AM 62.6 °F - 57.2 °F 82% 29.76 in 7.0 mi SW 8.1 mph - N/A Rain Rain
12:34 AM 60.8 °F - 59.0 °F 94% 29.76 in 7.0 mi SW 4.6 mph - N/A Rain Light Rain
12:54 AM 60.8 °F - 59.0 °F 94% 29.75 in 5.0 mi Calm Calm - N/A Rain Rain
1:14 AM 60.8 °F - 59.0 °F 94% 29.74 in 5.0 mi SSW 4.6 mph - N/A Rain Light Rain
1:34 AM 60.8 °F - 59.0 °F 94% 29.73 in 4.0 mi Calm Calm - N/A Rain Rain
1:54 AM 60.8 °F - 59.0 °F 94% 29.72 in 3.0 mi Calm Calm - N/A Rain Light Rain
2:14 AM 60.8 °F - 59.0 °F 94% 29.72 in 4.0 mi SSW 3.5 mph - N/A Rain Light Rain
2:34 AM 60.8 °F - 59.0 °F 94% 29.71 in 5.0 mi Calm Calm - N/A Rain Light Rain
2:54 AM 60.8 °F - 59.0 °F 94% 29.69 in 5.0 mi South 3.5 mph - N/A Rain Rain
3:14 AM 59.0 °F - 59.0 °F 100% 29.68 in 4.0 mi Calm Calm - N/A   Drizzle
3:34 AM 59.0 °F - 59.0 °F 100% 29.66 in 3.0 mi Calm Calm - N/A   Drizzle
3:54 AM 59.0 °F - 59.0 °F 100% 29.65 in 3.0 mi SSW 4.6 mph - N/A   Heavy Drizzle
4:14 AM 59.0 °F - 59.0 °F 100% 29.63 in 3.0 mi Calm Calm - N/A   Heavy Drizzle
4:34 AM 59.0 °F - 59.0 °F 100% 29.63 in 4.0 mi Calm Calm - N/A   Light Drizzle
4:54 AM 59.0 °F - 59.0 °F 100% 29.63 in 7.0 mi Calm Calm - N/A   Overcast
5:14 AM 59.0 °F - 59.0 °F 100% 29.63 in 7.0 mi Calm Calm - N/A   Overcast
5:34 AM 59.0 °F - 59.0 °F 100% 29.62 in 10.0 mi SSW 3.5 mph - N/A   Overcast
5:54 AM 59.0 °F - 59.0 °F 100% 29.63 in 10.0 mi SW 4.6 mph - N/A   Overcast
6:14 AM 59.0 °F - 59.0 °F 100% 29.63 in 5.0 mi Calm Calm - N/A   Heavy Drizzle
6:34 AM 59.0 °F - 59.0 °F 100% 29.63 in 5.0 mi SW 5.8 mph - N/A   Heavy Drizzle
6:54 AM 59.0 °F - 59.0 °F 100% 29.63 in 10.0 mi WSW 3.5 mph - N/A   Overcast
7:14 AM 59.0 °F - 59.0 °F 100% 29.64 in 10.0 mi WSW 6.9 mph - N/A Rain Rain
7:34 AM 59.0 °F - 59.0 °F 100% 29.64 in 10.0 mi WSW 5.8 mph - N/A   Overcast
7:54 AM 59.0 °F - 59.0 °F 100% 29.63 in 10.0 mi WSW 5.8 mph - N/A   Overcast
8:14 AM 59.0 °F - 59.0 °F 100% 29.64 in 10.0 mi WSW 3.5 mph - N/A   Overcast
8:34 AM 59.0 °F - 59.0 °F 100% 29.64 in 10.0 mi WSW 6.9 mph - N/A   Overcast
8:54 AM 59.0 °F - 59.0 °F 100% 29.65 in 7.0 mi WSW 5.8 mph - N/A   Overcast
9:14 AM 59.0 °F - 59.0 °F 100% 29.65 in 3.0 mi West 8.1 mph - N/A   Drizzle
9:34 AM 60.8 °F - 59.0 °F 94% 29.65 in 10.0 mi West 5.8 mph - N/A   Overcast
9:54 AM 60.8 °F - 59.0 °F 94% 29.65 in 10.0 mi West 8.1 mph - N/A   Overcast
10:14 AM 60.8 °F - 59.0 °F 94% 29.65 in 10.0 mi WSW 5.8 mph - N/A   Overcast
10:34 AM 60.8 °F - 59.0 °F 94% 29.65 in 10.0 mi West 8.1 mph 18.4 mph N/A   Overcast
10:54 AM 60.8 °F - 59.0 °F 94% 29.66 in 10.0 mi West 11.5 mph 20.7 mph N/A   Overcast
11:14 AM 62.6 °F - 59.0 °F 88% 29.66 in 10.0 mi West 6.9 mph - N/A   Overcast
11:34 AM 62.6 °F - 59.0 °F 88% 29.65 in 10.0 mi West 3.5 mph - N/A   Overcast
11:54 AM 62.6 °F - 59.0 °F 88% 29.65 in 10.0 mi West 8.1 mph - N/A   Overcast
12:14 PM 64.4 °F - 59.0 °F 83% 29.65 in 10.0 mi West 8.1 mph - N/A   Overcast
12:34 PM 62.6 °F - 59.0 °F 88% 29.65 in 10.0 mi West 6.9 mph 18.4 mph N/A   Overcast
12:54 PM 62.6 °F - 59.0 °F 88% 29.65 in 10.0 mi West 9.2 mph - N/A   Overcast
1:14 PM 62.6 °F - 59.0 °F 88% 29.65 in 10.0 mi West 10.4 mph 16.1 mph N/A   Overcast
1:34 PM 64.4 °F - 55.4 °F 73% 29.65 in 10.0 mi West 11.5 mph 19.6 mph N/A   Overcast
1:54 PM 68.0 °F - 57.2 °F 68% 29.65 in 10.0 mi WNW 10.4 mph 19.6 mph N/A   Mostly Cloudy
2:14 PM 68.0 °F - 55.4 °F 64% 29.62 in 10.0 mi West 9.2 mph 17.3 mph N/A   Mostly Cloudy
2:34 PM 66.2 °F - 53.6 °F 64% 29.63 in 10.0 mi NW 25.3 mph 35.7 mph N/A   Mostly Cloudy
2:54 PM 60.8 °F - 50.0 °F 68% 29.65 in 10.0 mi NW 16.1 mph 27.6 mph N/A   Mostly Cloudy
3:14 PM 59.0 °F - 48.2 °F 67% 29.67 in 10.0 mi NW 19.6 mph 28.8 mph N/A   Overcast
3:34 PM 57.2 °F - 46.4 °F 67% 29.68 in 10.0 mi NW 16.1 mph 27.6 mph N/A   Overcast
3:54 PM 55.4 °F - 44.6 °F 67% 29.70 in 10.0 mi NW 12.7 mph 28.8 mph N/A   Mostly Cloudy
4:14 PM 57.2 °F - 42.8 °F 59% 29.72 in 10.0 mi NNW 20.7 mph 29.9 mph N/A   Mostly Cloudy
4:34 PM 53.6 °F - 39.2 °F 58% 29.74 in 10.0 mi NW 19.6 mph 25.3 mph N/A   Mostly Cloudy
4:54 PM 51.8 °F - 37.4 °F 58% 29.75 in 10.0 mi NW 18.4 mph 29.9 mph N/A   Overcast
5:14 PM 50.0 °F - 35.6 °F 58% 29.78 in 10.0 mi NW 12.7 mph 24.2 mph N/A   Overcast
5:34 PM 46.4 °F 39.2 °F 35.6 °F 66% 29.80 in 10.0 mi NW 18.4 mph 29.9 mph N/A   Overcast
5:54 PM 46.4 °F 40.1 °F 33.8 °F 62% 29.81 in 10.0 mi NW 15.0 mph 26.5 mph N/A   Overcast
6:14 PM 46.4 °F 39.5 °F 33.8 °F 62% 29.82 in 10.0 mi NW 17.3 mph 27.6 mph N/A   Overcast
6:34 PM 46.4 °F 39.8 °F 33.8 °F 62% 29.84 in 10.0 mi NNW 16.1 mph 29.9 mph N/A   Overcast
6:54 PM 46.4 °F 41.1 °F 33.8 °F 62% 29.85 in 10.0 mi NW 11.5 mph 17.3 mph N/A   Overcast
7:14 PM 44.6 °F 38.1 °F 33.8 °F 66% 29.86 in 10.0 mi NNW 13.8 mph 23.0 mph N/A   Overcast
7:34 PM 44.6 °F 37.8 °F 32.0 °F 61% 29.87 in 10.0 mi NNW 15.0 mph 24.2 mph N/A   Overcast
7:54 PM 44.6 °F 38.4 °F 32.0 °F 61% 29.89 in 10.0 mi NNW 12.7 mph 26.5 mph N/A   Overcast
8:14 PM 44.6 °F 37.2 °F 32.0 °F 61% 29.90 in 10.0 mi NNW 17.3 mph 25.3 mph N/A   Overcast
8:34 PM 44.6 °F 38.4 °F 32.0 °F 61% 29.91 in 10.0 mi NW 12.7 mph 19.6 mph N/A   Overcast
8:54 PM 44.6 °F 39.2 °F 32.0 °F 61% 29.92 in 10.0 mi NW 10.4 mph 28.8 mph N/A   Overcast
9:14 PM 42.8 °F 36.2 °F 32.0 °F 66% 29.94 in 10.0 mi NNW 12.7 mph 23.0 mph N/A   Overcast
9:34 PM 42.8 °F 36.2 °F 32.0 °F 66% 29.95 in 10.0 mi NNW 12.7 mph 20.7 mph N/A   Overcast
9:54 PM 42.8 °F 36.2 °F 30.2 °F 61% 29.95 in 10.0 mi NNW 12.7 mph 18.4 mph N/A   Overcast
10:14 PM 42.8 °F 35.8 °F 30.2 °F 61% 29.96 in 10.0 mi NW 13.8 mph - N/A   Mostly Cloudy
10:34 PM 42.8 °F 37.5 °F 30.2 °F 61% 29.97 in 10.0 mi NW 9.2 mph 19.6 mph N/A   Overcast
10:54 PM 42.8 °F 36.6 °F 30.2 °F 61% 29.98 in 10.0 mi NNW 11.5 mph 19.6 mph N/A   Overcast
11:14 PM 42.8 °F 36.2 °F 30.2 °F 61% 29.99 in 10.0 mi NW 12.7 mph 26.5 mph N/A   Overcast
11:34 PM 42.8 °F 35.1 °F 28.4 °F 57% 29.99 in 10.0 mi NNW 16.1 mph 25.3 mph N/A   Overcast
11:54 PM 41.0 °F 32.8 °F 26.6 °F 57% 30.00 in 10.0 mi NNW 16.1 mph 26.5 mph N/A   Overcast